FENGYUN 1C DEB

Satellite information

Favourite Embed

Satellite Type and Status

DEBRISIN ORBIT

Key statistics

Satellite FENGYUN 1C DEB at a glance.

Uptime

9715

Days in orbit

Revolutions

≈ 14.4

Per day

Orbit

SSO

Sun Synchronous Orbit

Inclination

98.5

Latest

Satellite identification and parameters

Extended collection of information and parameters for FENGYUN 1C DEB.

Object identification

Identified? True

Debris? True

Object name: FENGYUN 1C DEB

International designator: 1999-025CAH

Object number (NORAD): 31627

Object ID (CCSDS): 31627

Country: PEOPLES REPUBLIC OF CHINA (PRC)

Current information (Y/N): Y

RCS size: SMALL

Orbital parameters

Period: 100.32 minutes

Inclination: 98.5313 deg

SMA: 7151.845 km

Apoapsis: 810.608 km

Periapsis: 736.811 km

RAAN: 18.4415 deg

Eccentricy: 0.00515931

Argument of periapsis: 201.9005 deg

Mean anomaly: 157.9975 deg

Mean motion: 14.35408996 rev/day

Mean motion (dot): 0.00003885 rev/day2

B* drag term: 0.0013473839 1/REarth

Two-line elements (TLE)

Creation date: Nov. 26, 2025, 6 p.m.

Reference frame: TEME

Reference center: EARTH

Epoch: Nov. 26, 2025, 9:13 a.m. UTC

TLE line 0: 0 FENGYUN 1C DEB

TLE line 1: 1 31627U 99025CAH 25330.38429370 .00003885 00000-0 13474-2 0 9998

TLE line 2: 2 31627 98.5313 18.4415 0051593 201.9005 157.9975 14.35408996645325

Live tracking on map

Real-time ground track for satellite FENGYUN 1C DEB.

In-orbit conjunctions

A list of the most updated potential collisions computed for object FENGYUN 1C DEB.

Target Orbit TCA Probability of collision Miss distance Type
COSMOS 1190 LEO 2025-01-26 08:56:04 0.0008574326 126.0 (m) PAYLOAD
THOR AGENA D R/B SSO 2024-09-26 15:22:55 0.0002152727 146.0 (m) ROCKET BODY

Associated space launch

Chinese polar orbiting meteorological satellite

FENGYUN 1C DEB was lifted into orbit during the mission ‘Long March 4B | Feng Yun 1C’, on board a Long March 4B space rocket.

The launch took place on May 10, 1999, 1:33 a.m. from Launch Complex 7.

For more information about the launch, click the button.

Launch to space Long March 4B | Feng Yun 1C
Long March 4B | Feng Yun 1C

Agency: N/A

Status: Launch Successful

Launch date: May 10, 1999, 1:33 a.m. UTC

Rocket: Long March 4B

Launch pad: Launch Complex 7

Location: Taiyuan Satellite Launch Center, People's Republic of China

...

Latest news about this satellite

There are no fresh news available about this satellite. Check back as we update our databases every day.


Newsletter sign-up

Weekly statistics, charts and insights to help you stay on top of the space industry.